When you browse on this site, cookies collect data to enhance your experience and personalize the content and advertising you see.
Visit our Privacy Policy to learn more. By continuing to use the site, you agree to this use of cookies and data.
  • In Hungary
  • List of Countries
  • For 7 days
  • Water Temperature
  • Weather Map
  • News
  • Weather Widgets
  • user-avatar
    Login

    Hourly Weather Porto-Novo

    Today, 13 November, Wednesday

    Time Temperature Precipitation Wind Pressure Humidity
    00:00 +28°C° 0 mm 2 mps 755 mmHg 86%
    01:00 +28°C° 0 mm 2 mps 755 mmHg 86%
    02:00 +28°C° 0 mm 2 mps 755 mmHg 87%
    03:00 +28°C° 0 mm 2 mps 754 mmHg 87%
    04:00 +28°C° 0 mm 2 mps 755 mmHg 87%
    05:00 +27°C° 0 mm 1 mps 755 mmHg 87%
    06:00 +27°C° 0 mm 1 mps 756 mmHg 87%
    07:00 +29°C° 0 mm 1 mps 756 mmHg 79%
    08:00 +31°C° 0 mm 1 mps 756 mmHg 71%
    09:00 +33°C° 0 mm 1 mps 756 mmHg 63%
    10:00 +34°C° 0 mm 1 mps 755 mmHg 60%
    11:00 +35°C° 0 mm 2 mps 755 mmHg 57%
    12:00 +36°C° 0 mm 2 mps 755 mmHg 54%
    13:00 +35°C° 0.3 mm 3 mps 754 mmHg 58%
    14:00 +34°C° 0.3 mm 3 mps 754 mmHg 62%
    15:00 +33°C° 0.3 mm 4 mps 753 mmHg 65%
    16:00 +31°C° 0.3 mm 3 mps 753 mmHg 70%
    17:00 +30°C° 0.3 mm 3 mps 754 mmHg 74%
    18:00 +29°C° 0.3 mm 3 mps 754 mmHg 79%
    19:00 +29°C° 0.4 mm 3 mps 755 mmHg 80%
    20:00 +29°C° 0.4 mm 3 mps 755 mmHg 82%
    21:00 +28°C° 0.4 mm 3 mps 756 mmHg 83%
    22:00 +28°C° 0.1 mm 2 mps 755 mmHg 84%
    23:00 +28°C° 0.1 mm 2 mps 755 mmHg 85%

    Tomorrow, 14 November, Thursday

    Time Temperature Precipitation Wind Pressure Humidity
    00:00 +28°C° 0.1 mm 2 mps 755 mmHg 86%
    01:00 +28°C° 1 mm 2 mps 755 mmHg 86%
    02:00 +28°C° 1 mm 2 mps 755 mmHg 87%
    03:00 +27°C° 1 mm 2 mps 754 mmHg 88%
    04:00 +27°C° 0.2 mm 2 mps 755 mmHg 87%
    05:00 +28°C° 0.2 mm 2 mps 755 mmHg 86%
    06:00 +28°C° 0.2 mm 1 mps 755 mmHg 85%
    07:00 +28°C° 0 mm 1 mps 756 mmHg 83%
    08:00 +29°C° 0 mm 1 mps 756 mmHg 81%
    09:00 +30°C° 0 mm 1 mps 756 mmHg 79%
    10:00 +31°C° 0 mm 1 mps 756 mmHg 72%
    11:00 +33°C° 0 mm 1 mps 755 mmHg 65%
    12:00 +35°C° 0 mm 2 mps 755 mmHg 59%
    13:00 +35°C° 0.3 mm 2 mps 754 mmHg 60%
    14:00 +35°C° 0.3 mm 2 mps 754 mmHg 61%
    15:00 +34°C° 0.3 mm 3 mps 753 mmHg 62%
    16:00 +33°C° 0.1 mm 3 mps 753 mmHg 68%
    17:00 +31°C° 0.1 mm 3 mps 754 mmHg 74%
    18:00 +29°C° 0.1 mm 3 mps 754 mmHg 80%
    19:00 +29°C° 0 mm 3 mps 754 mmHg 82%
    20:00 +29°C° 0 mm 3 mps 755 mmHg 83%
    21:00 +29°C° 0 mm 3 mps 756 mmHg 85%
    22:00 +29°C° 0.3 mm 3 mps 755 mmHg 86%
    23:00 +28°C° 0.3 mm 3 mps 755 mmHg 87%

    Day after tomorrow, 15 November, Friday

    Time Temperature Precipitation Wind Pressure Humidity
    00:00 +28°C° 0.3 mm 3 mps 755 mmHg 88%
    01:00 +28°C° 0.1 mm 3 mps 754 mmHg 88%
    02:00 +28°C° 0.1 mm 3 mps 754 mmHg 89%
    03:00 +28°C° 0.1 mm 3 mps 754 mmHg 89%
    04:00 +28°C° 0 mm 2 mps 754 mmHg 89%
    05:00 +28°C° 0 mm 2 mps 754 mmHg 90%
    06:00 +28°C° 0 mm 2 mps 755 mmHg 90%
    07:00 +29°C° 0.1 mm 2 mps 755 mmHg 83%
    08:00 +31°C° 0.1 mm 2 mps 756 mmHg 77%
    09:00 +32°C° 0.1 mm 2 mps 756 mmHg 70%
    10:00 +34°C° 0 mm 3 mps 755 mmHg 67%
    11:00 +34°C° 0 mm 3 mps 755 mmHg 64%
    12:00 +35°C° 0 mm 3 mps 754 mmHg 62%
    13:00 +34°C° 0.1 mm 4 mps 754 mmHg 63%
    14:00 +34°C° 0.1 mm 4 mps 753 mmHg 65%
    15:00 +34°C° 0.1 mm 4 mps 753 mmHg 66%
    16:00 +32°C° 0.1 mm 4 mps 753 mmHg 72%
    17:00 +30°C° 0.1 mm 3 mps 753 mmHg 77%
    18:00 +29°C° 0.1 mm 3 mps 754 mmHg 82%
    19:00 +29°C° 0.7 mm 3 mps 754 mmHg 84%
    20:00 +29°C° 0.7 mm 3 mps 755 mmHg 85%
    21:00 +28°C° 0.7 mm 3 mps 755 mmHg 86%
    22:00 +28°C° 0.3 mm 3 mps 755 mmHg 87%
    23:00 +28°C° 0.3 mm 3 mps 755 mmHg 87%

    16 November, Saturday

    Time Temperature Precipitation Wind Pressure Humidity
    00:00 +28°C° 0.3 mm 3 mps 755 mmHg 87%
    01:00 +28°C° 0.1 mm 3 mps 754 mmHg 88%
    02:00 +28°C° 0.1 mm 3 mps 754 mmHg 88%
    03:00 +27°C° 0.1 mm 3 mps 754 mmHg 89%
    04:00 +27°C° 0.1 mm 2 mps 754 mmHg 89%
    05:00 +27°C° 0.1 mm 2 mps 754 mmHg 89%
    06:00 +27°C° 0.1 mm 2 mps 755 mmHg 89%
    07:00 +29°C° 0.1 mm 2 mps 755 mmHg 83%
    08:00 +30°C° 0.1 mm 2 mps 755 mmHg 76%
    09:00 +32°C° 0.1 mm 2 mps 756 mmHg 70%
    10:00 +33°C° 0 mm 3 mps 755 mmHg 67%
    11:00 +34°C° 0 mm 3 mps 755 mmHg 65%
    12:00 +35°C° 0 mm 3 mps 754 mmHg 62%
    13:00 +34°C° 0.2 mm 3 mps 754 mmHg 63%
    14:00 +34°C° 0.2 mm 3 mps 753 mmHg 63%
    15:00 +34°C° 0.2 mm 3 mps 752 mmHg 64%
    16:00 +33°C° 0.3 mm 3 mps 753 mmHg 70%
    17:00 +30°C° 0.3 mm 3 mps 753 mmHg 75%
    18:00 +29°C° 0.3 mm 3 mps 753 mmHg 81%
    19:00 +29°C° 0.5 mm 3 mps 754 mmHg 82%
    20:00 +29°C° 0.5 mm 3 mps 754 mmHg 82%
    21:00 +29°C° 0.5 mm 3 mps 755 mmHg 83%
    22:00 +29°C° 0 mm 3 mps 755 mmHg 84%
    23:00 +28°C° 0 mm 3 mps 755 mmHg 85%

    17 November, Sunday

    Time Temperature Precipitation Wind Pressure Humidity
    00:00 +28°C° 0 mm 3 mps 755 mmHg 86%
    01:00 +28°C° 0 mm 3 mps 754 mmHg 86%
    02:00 +28°C° 0 mm 3 mps 754 mmHg 87%
    03:00 +28°C° 0 mm 2 mps 754 mmHg 88%
    04:00 +28°C° 0 mm 2 mps 754 mmHg 88%
    05:00 +28°C° 0 mm 2 mps 754 mmHg 89%
    06:00 +27°C° 0 mm 2 mps 755 mmHg 89%
    07:00 +29°C° 0 mm 2 mps 755 mmHg 82%
    08:00 +31°C° 0 mm 2 mps 755 mmHg 74%
    09:00 +32°C° 0 mm 2 mps 756 mmHg 67%
    10:00 +34°C° 0 mm 3 mps 755 mmHg 66%
    11:00 +34°C° 0 mm 3 mps 755 mmHg 65%
    12:00 +34°C° 0 mm 3 mps 755 mmHg 64%
    13:00 +34°C° 0.1 mm 3 mps 754 mmHg 65%
    14:00 +34°C° 0.1 mm 3 mps 754 mmHg 66%
    15:00 +33°C° 0.1 mm 3 mps 753 mmHg 67%
    16:00 +31°C° 0.1 mm 3 mps 753 mmHg 72%
    17:00 +30°C° 0.1 mm 3 mps 754 mmHg 77%
    18:00 +29°C° 0.1 mm 3 mps 754 mmHg 82%
    19:00 +29°C° 0 mm 3 mps 755 mmHg 82%
    20:00 +29°C° 0 mm 3 mps 755 mmHg 83%
    21:00 +29°C° 0 mm 4 mps 756 mmHg 84%
    22:00 +29°C° 0 mm 4 mps 756 mmHg 85%
    23:00 +29°C° 0 mm 4 mps 756 mmHg 85%

    18 November, Monday

    Time Temperature Precipitation Wind Pressure Humidity
    00:00 +28°C° 0 mm 3 mps 756 mmHg 86%
    01:00 +28°C° 0 mm 3 mps 755 mmHg 87%
    02:00 +28°C° 0 mm 3 mps 755 mmHg 89%
    03:00 +28°C° 0 mm 2 mps 754 mmHg 90%
    04:00 +28°C° 0 mm 2 mps 755 mmHg 90%
    05:00 +28°C° 0 mm 2 mps 755 mmHg 91%
    06:00 +27°C° 0 mm 2 mps 755 mmHg 91%
    07:00 +29°C° 0 mm 2 mps 756 mmHg 84%
    08:00 +30°C° 0 mm 2 mps 756 mmHg 78%
    09:00 +32°C° 0 mm 2 mps 756 mmHg 71%
    10:00 +32°C° 0 mm 2 mps 756 mmHg 68%
    11:00 +34°C° 0 mm 2 mps 755 mmHg 66%
    12:00 +35°C° 0 mm 3 mps 755 mmHg 64%
    13:00 +34°C° 0 mm 3 mps 755 mmHg 64%
    14:00 +34°C° 0 mm 3 mps 754 mmHg 65%
    15:00 +34°C° 0 mm 3 mps 754 mmHg 66%
    16:00 +33°C° 0 mm 3 mps 754 mmHg 71%
    17:00 +30°C° 0 mm 3 mps 754 mmHg 76%
    18:00 +29°C° 0 mm 3 mps 755 mmHg 81%
    19:00 +29°C° 0 mm 3 mps 755 mmHg 82%
    20:00 +29°C° 0 mm 3 mps 756 mmHg 84%
    21:00 +29°C° 0 mm 3 mps 756 mmHg 85%
    22:00 +29°C° 0 mm 3 mps 756 mmHg 86%
    23:00 +28°C° 0 mm 3 mps 756 mmHg 86%
    Show more